Powrót do katalogu

DELTA 1 DEB

AktywnyPO
NORAD 21461·DEBRIS·🇺🇸 United States

Wystrzelony Jun 12, 1975 z Vandenberg Space Force Base

Loading…

Następne Przeloty (najbliższe 24 godziny)

TLE

ŚwieżeSource: Space-Track

Epoka: Sep 14, 2026, 11:49 UTC

1 21461U 75052EV  26257.49263611  .00000003  00000-0  97286-4 0  9996
2 21461  99.7320 346.4317 0205546 200.9465 289.4875 13.20529659702488

Śledź DELTA 1 DEB w czasie rzeczywistym z AllMySat

Download on the App Store